| time (UTC) | temp F | wind direction | speed MPH | gust MPH | rain 1hr in | rain 24hr in | rain mn in | humidity % | barometer mb |
| 20260510013227 | 51 | 98 | 0.0 | 0.0 | 0.00 | 0.01 | 0.00 | 77 | 1013.1 |
| 20260510012712 | 51 | 98 | 0.0 | 0.0 | 0.00 | 0.01 | 0.00 | 78 | 1013.1 |
| 20260510012207 | 51 | 98 | 0.0 | 0.0 | 0.00 | 0.01 | 0.00 | 78 | 1013.2 |
| 20260510011727 | 51 | 98 | 0.0 | 0.0 | 0.00 | 0.01 | 0.00 | 77 | 1013.2 |
| 20260510011222 | 51 | 98 | 0.0 | 0.0 | 0.00 | 0.01 | 0.00 | 78 | 1013.3 |
| 20260510010723 | 51 | 98 | 0.0 | 0.0 | 0.00 | 0.01 | 0.00 | 77 | 1013.2 |
| 20260510010215 | 51 | 98 | 0.0 | 0.0 | 0.00 | 0.01 | 0.00 | 77 | 1013.2 |
| 20260510005713 | 52 | 98 | 0.0 | 0.0 | 0.00 | 0.01 | 0.00 | 76 | 1013.3 |
| 20260510005223 | 52 | 98 | 0.0 | 0.0 | 0.00 | 0.01 | 0.00 | 75 | 1013.3 |
| 20260510004714 | 52 | 98 | 0.0 | 0.0 | 0.00 | 0.01 | 0.00 | 76 | 1013.3 |
| 20260510004213 | 52 | 95 | 0.0 | 0.0 | 0.00 | 0.01 | 0.00 | 76 | 1013.3 |
| 20260510003719 | 52 | 5 | 0.0 | 0.0 | 0.00 | 0.01 | 0.00 | 76 | 1013.3 |
| 20260510003218 | 52 | 29 | 0.0 | 0.0 | 0.00 | 0.01 | 0.00 | 77 | 1013.2 |
| 20260510002713 | 52 | 51 | 0.0 | 0.0 | 0.00 | 0.01 | 0.00 | 76 | 1013.3 |
| 20260510001728 | 52 | 101 | 0.0 | 0.0 | 0.00 | 0.01 | 0.00 | 75 | 1013.4 |
| 20260510001253 | 53 | 104 | 0.0 | 0.0 | 0.00 | 0.01 | 0.00 | 75 | 1013.5 |
| 20260510000729 | 53 | 69 | 0.0 | 0.0 | 0.00 | 0.01 | 0.00 | 74 | 1013.7 |
| 20260510000223 | 53 | 69 | 0.0 | 0.0 | 0.00 | 0.01 | 0.00 | 74 | 1013.8 |
| 20260509235718 | 53 | 74 | 0.0 | 0.0 | 0.00 | 0.01 | 0.00 | 74 | 1013.8 |
| 20260509235229 | 53 | 74 | 0.0 | 0.0 | 0.00 | 0.01 | 0.00 | 74 | 1013.8 |
| 20260509234716 | 53 | 74 | 0.0 | 0.0 | 0.00 | 0.01 | 0.00 | 74 | 1013.9 |
| 20260509234213 | 53 | 47 | 0.0 | 0.0 | 0.00 | 0.01 | 0.00 | 74 | 1013.9 |
| 20260509233223 | 53 | 329 | 0.0 | 0.0 | 0.00 | 0.01 | 0.00 | 75 | 1014.0 |
| 20260509232715 | 53 | 355 | 0.0 | 0.0 | 0.00 | 0.01 | 0.00 | 74 | 1014.0 |
| 20260509232227 | 52 | 5 | 0.0 | 0.0 | 0.00 | 0.01 | 0.00 | 75 | 1014.1 |
| 20260509231729 | 52 | 20 | 0.0 | 0.0 | 0.00 | 0.01 | 0.00 | 75 | 1014.1 |
| 20260509231222 | 52 | 5 | 0.0 | 0.0 | 0.00 | 0.01 | 0.00 | 76 | 1014.2 |
| 20260509230229 | 52 | 25 | 0.0 | 0.0 | 0.00 | 0.01 | 0.00 | 76 | 1014.2 |
| 20260509225716 | 52 | 355 | 0.0 | 0.0 | 0.00 | 0.01 | 0.00 | 76 | 1014.2 |
| 20260509225221 | 52 | 350 | 0.0 | 0.0 | 0.00 | 0.01 | 0.00 | 77 | 1014.2 |
| 20260509224727 | 52 | 350 | 0.0 | 0.0 | 0.00 | 0.01 | 0.00 | 77 | 1014.3 |
| 20260509224226 | 52 | 350 | 0.0 | 0.0 | 0.00 | 0.01 | 0.00 | 77 | 1014.4 |
| 20260509223226 | 52 | 346 | 0.0 | 0.0 | 0.00 | 0.01 | 0.00 | 77 | 1014.4 |
| 20260509222712 | 52 | 346 | 0.0 | 0.0 | 0.00 | 0.01 | 0.00 | 77 | 1014.5 |
| 20260509222222 | 52 | 346 | 0.0 | 0.0 | 0.00 | 0.01 | 0.00 | 76 | 1014.5 |
| 20260509221712 | 52 | 346 | 0.0 | 0.0 | 0.00 | 0.01 | 0.00 | 77 | 1014.5 |
| 20260509221212 | 52 | 177 | 0.0 | 0.0 | 0.00 | 0.01 | 0.00 | 75 | 1014.5 |
| 20260509220729 | 52 | 208 | 0.0 | 0.0 | 0.00 | 0.01 | 0.00 | 75 | 1014.6 |
| 20260509220222 | 52 | 19 | 0.0 | 0.0 | 0.00 | 0.01 | 0.01 | 77 | 1014.5 |
| 20260509215723 | 52 | 11 | 0.0 | 0.0 | 0.00 | 0.01 | 0.01 | 77 | 1014.6 |
| 20260509215209 | 52 | 0 | 0.0 | 0.0 | 0.00 | 0.01 | 0.01 | 77 | 1014.6 |
| 20260509214730 | 52 | 346 | 0.0 | 0.0 | 0.00 | 0.01 | 0.01 | 76 | 1014.7 |
| 20260509214230 | 52 | 122 | 0.0 | 0.0 | 0.00 | 0.01 | 0.01 | 76 | 1014.6 |
| 20260509213724 | 53 | 98 | 0.0 | 0.0 | 0.00 | 0.01 | 0.01 | 76 | 1014.6 |
| 20260509213219 | 53 | 109 | 0.0 | 0.0 | 0.00 | 0.01 | 0.01 | 76 | 1014.6 |
| 20260509212727 | 53 | 69 | 0.0 | 0.0 | 0.00 | 0.01 | 0.01 | 76 | 1014.6 |
| 20260509212208 | 53 | 69 | 0.0 | 0.0 | 0.00 | 0.01 | 0.01 | 76 | 1014.5 |
| 20260509211727 | 53 | 69 | 0.0 | 0.0 | 0.00 | 0.01 | 0.01 | 76 | 1014.6 |
| 20260509211230 | 53 | 124 | 0.0 | 0.0 | 0.00 | 0.01 | 0.01 | 76 | 1014.6 |
| 20260509210224 | 53 | 75 | 0.0 | 0.0 | 0.00 | 0.01 | 0.01 | 75 | 1014.6 |
| 20260509205724 | 53 | 75 | 0.0 | 0.0 | 0.00 | 0.01 | 0.01 | 75 | 1014.6 |
| 20260509205218 | 53 | 88 | 0.0 | 0.0 | 0.00 | 0.01 | 0.01 | 75 | 1014.7 |
| 20260509204230 | 54 | 89 | 0.0 | 0.0 | 0.00 | 0.01 | 0.01 | 74 | 1014.6 |
| 20260509203215 | 54 | 115 | 0.0 | 0.0 | 0.00 | 0.01 | 0.01 | 74 | 1014.6 |
| 20260509202715 | 54 | 55 | 0.0 | 0.0 | 0.00 | 0.01 | 0.01 | 74 | 1014.6 |
| 20260509201719 | 54 | 55 | 0.0 | 0.0 | 0.00 | 0.01 | 0.01 | 73 | 1014.6 |
| 20260509201224 | 55 | 55 | 0.0 | 0.0 | 0.00 | 0.02 | 0.01 | 73 | 1014.6 |
| 20260509200742 | 55 | 55 | 0.0 | 0.0 | 0.00 | 0.02 | 0.01 | 73 | 1014.6 |
| 20260509200223 | 55 | 55 | 0.0 | 0.0 | 0.00 | 0.02 | 0.01 | 73 | 1014.6 |
| 20260509195715 | 55 | 55 | 0.0 | 0.0 | 0.00 | 0.02 | 0.01 | 72 | 1014.6 |
| 20260509195220 | 55 | 55 | 0.0 | 0.0 | 0.00 | 0.02 | 0.01 | 71 | 1014.6 |
| 20260509194720 | 55 | 43 | 0.0 | 0.0 | 0.00 | 0.02 | 0.01 | 71 | 1014.6 |
| 20260509194224 | 56 | 43 | 0.0 | 0.0 | 0.00 | 0.02 | 0.01 | 71 | 1014.5 |
| 20260509193722 | 56 | 42 | 0.0 | 0.0 | 0.00 | 0.02 | 0.01 | 70 | 1014.5 |
| 20260509193225 | 56 | 24 | 0.0 | 0.0 | 0.00 | 0.02 | 0.01 | 70 | 1014.5 |
| 20260509192722 | 56 | 19 | 0.0 | 0.0 | 0.00 | 0.02 | 0.01 | 70 | 1014.5 |
| 20260509191730 | 57 | 46 | 0.0 | 0.0 | 0.00 | 0.02 | 0.01 | 71 | 1014.5 |
| 20260509191224 | 57 | 15 | 0.0 | 0.0 | 0.00 | 0.02 | 0.01 | 70 | 1014.6 |
| 20260509190712 | 58 | 15 | 0.0 | 0.0 | 0.00 | 0.02 | 0.01 | 68 | 1014.6 |
| 20260509190233 | 59 | 15 | 0.0 | 0.0 | 0.00 | 0.02 | 0.01 | 68 | 1014.6 |
| 20260509185720 | 59 | 15 | 0.0 | 0.0 | 0.00 | 0.02 | 0.01 | 67 | 1014.6 |
| 20260509185232 | 60 | 15 | 0.0 | 0.0 | 0.00 | 0.02 | 0.01 | 67 | 1014.6 |
| 20260509184721 | 60 | 15 | 0.0 | 0.0 | 0.00 | 0.02 | 0.01 | 67 | 1014.6 |
| 20260509183709 | 60 | 5 | 0.0 | 0.0 | 0.00 | 0.02 | 0.01 | 67 | 1014.5 |
| 20260509183213 | 61 | 13 | 0.0 | 0.0 | 0.00 | 0.02 | 0.01 | 66 | 1014.5 |
| 20260509182728 | 61 | 341 | 0.0 | 0.0 | 0.00 | 0.02 | 0.01 | 65 | 1014.5 |
| 20260509182224 | 62 | 341 | 0.0 | 0.0 | 0.00 | 0.02 | 0.01 | 64 | 1014.5 |
| 20260509181711 | 63 | 338 | 0.0 | 0.0 | 0.00 | 0.02 | 0.01 | 63 | 1014.5 |
| 20260509181225 | 63 | 337 | 0.0 | 0.0 | 0.00 | 0.02 | 0.01 | 63 | 1014.5 |
| 20260509180715 | 63 | 338 | 0.0 | 0.0 | 0.00 | 0.02 | 0.01 | 61 | 1014.5 |
| 20260509180229 | 63 | 338 | 0.0 | 0.0 | 0.00 | 0.02 | 0.01 | 60 | 1014.4 |
| 20260509175221 | 64 | 346 | 0.0 | 0.0 | 0.00 | 0.02 | 0.01 | 58 | 1014.4 |
| 20260509174713 | 65 | 355 | 0.0 | 0.0 | 0.00 | 0.02 | 0.01 | 57 | 1014.4 |
| 20260509172721 | 66 | 313 | 1.0 | 6.0 | 0.00 | 0.02 | 0.01 | 54 | 1014.3 |
| 20260509172223 | 67 | 340 | 2.0 | 9.0 | 0.00 | 0.02 | 0.01 | 52 | 1014.3 |
| 20260509171726 | 67 | 321 | 4.0 | 9.0 | 0.00 | 0.02 | 0.01 | 51 | 1014.3 |
| 20260509171233 | 67 | 355 | 3.0 | 7.0 | 0.00 | 0.02 | 0.01 | 51 | 1014.3 |
| 20260509170727 | 68 | 296 | 1.0 | 5.0 | 0.00 | 0.02 | 0.01 | 52 | 1014.3 |
| 20260509170219 | 68 | 294 | 0.0 | 5.0 | 0.00 | 0.02 | 0.01 | 52 | 1014.3 |
| 20260509165706 | 68 | 303 | 1.0 | 5.0 | 0.00 | 0.02 | 0.01 | 51 | 1014.3 |
| 20260509165213 | 68 | 329 | 1.0 | 5.0 | 0.00 | 0.02 | 0.01 | 50 | 1014.4 |
| 20260509163706 | 69 | 320 | 0.0 | 0.0 | 0.00 | 0.02 | 0.01 | 52 | 1014.4 |
| 20260509163218 | 69 | 323 | 0.0 | 0.0 | 0.00 | 0.02 | 0.01 | 50 | 1014.5 |
| 20260509162733 | 68 | 222 | 0.0 | 0.0 | 0.00 | 0.02 | 0.01 | 45 | 1014.5 |
| 20260509162220 | 68 | 202 | 0.0 | 0.0 | 0.00 | 0.02 | 0.01 | 46 | 1014.6 |
| 20260509161733 | 68 | 212 | 0.0 | 0.0 | 0.00 | 0.02 | 0.01 | 46 | 1014.6 |
| 20260509161219 | 69 | 229 | 0.0 | 0.0 | 0.00 | 0.02 | 0.01 | 47 | 1014.6 |
| 20260509160721 | 69 | 206 | 0.0 | 0.0 | 0.00 | 0.02 | 0.01 | 47 | 1014.6 |
| 20260509160225 | 69 | 210 | 0.0 | 0.0 | 0.00 | 0.02 | 0.01 | 47 | 1014.6 |
| 20260509155722 | 69 | 207 | 0.0 | 0.0 | 0.00 | 0.02 | 0.01 | 47 | 1014.6 |
| 20260509155222 | 69 | 179 | 0.0 | 0.0 | 0.00 | 0.02 | 0.01 | 48 | 1014.7 |
| 20260509154718 | 68 | 174 | 0.0 | 0.0 | 0.00 | 0.02 | 0.01 | 47 | 1014.6 |
| 20260509154219 | 68 | 252 | 0.0 | 0.0 | 0.00 | 0.02 | 0.01 | 48 | 1014.6 |
| 20260509153720 | 68 | 225 | 0.0 | 5.0 | 0.00 | 0.02 | 0.01 | 47 | 1014.6 |
| 20260509153226 | 68 | 202 | 0.0 | 5.0 | 0.00 | 0.02 | 0.01 | 49 | 1014.6 |
| 20260509152718 | 67 | 196 | 1.0 | 5.0 | 0.00 | 0.02 | 0.01 | 50 | 1014.6 |
| 20260509152225 | 67 | 199 | 1.0 | 0.0 | 0.00 | 0.02 | 0.01 | 50 | 1014.6 |
| 20260509151727 | 66 | 234 | 0.0 | 0.0 | 0.00 | 0.02 | 0.01 | 50 | 1014.8 |
| 20260509151224 | 66 | 223 | 0.0 | 0.0 | 0.00 | 0.02 | 0.01 | 51 | 1014.8 |
| 20260509150719 | 65 | 217 | 0.0 | 4.0 | 0.00 | 0.02 | 0.01 | 55 | 1015.0 |
| 20260509150227 | 65 | 200 | 0.0 | 7.0 | 0.00 | 0.02 | 0.01 | 52 | 1015.1 |
| 20260509145721 | 66 | 188 | 1.0 | 7.0 | 0.00 | 0.02 | 0.01 | 51 | 1015.3 |
| 20260509145221 | 66 | 173 | 3.0 | 7.0 | 0.00 | 0.02 | 0.01 | 51 | 1015.3 |
| 20260509144725 | 66 | 171 | 3.0 | 7.0 | 0.00 | 0.02 | 0.01 | 52 | 1015.4 |
| 20260509142216 | 67 | 313 | 4.0 | 7.0 | 0.00 | 0.02 | 0.01 | 53 | 1015.4 |
| 20260509141717 | 67 | 305 | 3.0 | 7.0 | 0.00 | 0.02 | 0.01 | 53 | 1015.6 |
| 20260509141210 | 66 | 319 | 0.0 | 0.0 | 0.00 | 0.02 | 0.01 | 54 | 1015.7 |
| 20260509140733 | 65 | 298 | 0.0 | 0.0 | 0.00 | 0.02 | 0.01 | 56 | 1015.8 |
| 20260509140227 | 65 | 273 | 0.0 | 0.0 | 0.00 | 0.02 | 0.01 | 57 | 1015.8 |
| 20260509135731 | 65 | 130 | 0.0 | 0.0 | 0.00 | 0.02 | 0.01 | 57 | 1016.0 |
| 20260509135228 | 64 | 332 | 0.0 | 5.0 | 0.00 | 0.02 | 0.01 | 58 | 1016.0 |
| 20260509134231 | 65 | 284 | 3.0 | 10.0 | 0.00 | 0.02 | 0.01 | 57 | 1016.0 |
| 20260509133223 | 65 | 321 | 3.0 | 8.0 | 0.00 | 0.02 | 0.01 | 57 | 1016.1 |
| 20260509132216 | 64 | 176 | 3.0 | 9.0 | 0.00 | 0.02 | 0.01 | 59 | 1016.2 |
| 20260509131723 | 64 | 235 | 2.0 | 9.0 | 0.00 | 0.02 | 0.01 | 60 | 1016.2 |
| 20260509130719 | 65 | 244 | 0.0 | 4.0 | 0.00 | 0.02 | 0.01 | 60 | 1016.2 |
| 20260509130243 | 65 | 245 | 0.0 | 4.0 | 0.00 | 0.02 | 0.01 | 58 | 1016.2 |
| 20260509125716 | 65 | 221 | 0.0 | 4.0 | 0.00 | 0.02 | 0.01 | 57 | 1016.2 |
| 20260509125223 | 65 | 230 | 0.0 | 6.0 | 0.00 | 0.02 | 0.01 | 56 | 1016.2 |
| 20260509124723 | 65 | 92 | 1.0 | 6.0 | 0.00 | 0.02 | 0.01 | 55 | 1016.2 |
| 20260509124217 | 66 | 17 | 2.0 | 6.0 | 0.00 | 0.02 | 0.01 | 55 | 1016.4 |
| 20260509123724 | 67 | 279 | 2.0 | 7.0 | 0.00 | 0.02 | 0.01 | 55 | 1016.4 |
| 20260509123221 | 66 | 278 | 1.0 | 7.0 | 0.00 | 0.02 | 0.01 | 58 | 1016.4 |
| 20260509122716 | 65 | 340 | 2.0 | 6.0 | 0.00 | 0.02 | 0.01 | 57 | 1016.4 |
| 20260509122216 | 65 | 307 | 2.0 | 7.0 | 0.00 | 0.02 | 0.01 | 59 | 1016.5 |
| 20260509121714 | 65 | 281 | 2.0 | 7.0 | 0.00 | 0.02 | 0.01 | 58 | 1016.5 |
| 20260509121215 | 64 | 323 | 2.0 | 7.0 | 0.00 | 0.02 | 0.01 | 60 | 1016.6 |
| 20260509120218 | 64 | 305 | 3.0 | 8.0 | 0.00 | 0.02 | 0.01 | 60 | 1016.8 |
| 20260509115718 | 64 | 302 | 3.0 | 9.0 | 0.00 | 0.02 | 0.01 | 58 | 1016.8 |
| 20260509115207 | 65 | 322 | 4.0 | 9.0 | 0.00 | 0.02 | 0.01 | 59 | 1016.8 |
| 20260509114732 | 65 | 320 | 4.0 | 9.0 | 0.00 | 0.02 | 0.01 | 59 | 1016.8 |
| 20260509114214 | 65 | 312 | 2.0 | 7.0 | 0.00 | 0.02 | 0.01 | 58 | 1016.8 |
| 20260509113716 | 65 | 301 | 0.0 | 3.0 | 0.00 | 0.02 | 0.01 | 58 | 1016.8 |
| 20260509113229 | 65 | 275 | 0.0 | 6.0 | 0.00 | 0.02 | 0.01 | 55 | 1016.8 |
| 20260509112719 | 65 | 228 | 1.0 | 6.0 | 0.00 | 0.02 | 0.01 | 54 | 1016.8 |
| 20260509112210 | 65 | 326 | 2.0 | 8.0 | 0.00 | 0.02 | 0.01 | 54 | 1016.9 |
| 20260509111725 | 65 | 14 | 3.0 | 8.0 | 0.00 | 0.02 | 0.01 | 57 | 1016.9 |
| 20260509111220 | 65 | 314 | 4.0 | 9.0 | 0.00 | 0.02 | 0.01 | 57 | 1017.0 |
| 20260509110717 | 65 | 295 | 4.0 | 9.0 | 0.00 | 0.02 | 0.01 | 55 | 1017.1 |
| 20260509105718 | 66 | 164 | 0.0 | 6.0 | 0.00 | 0.02 | 0.01 | 54 | 1017.2 |
| 20260509105220 | 65 | 17 | 1.0 | 7.0 | 0.00 | 0.02 | 0.01 | 53 | 1017.2 |
| 20260509104725 | 65 | 315 | 2.0 | 7.0 | 0.00 | 0.02 | 0.01 | 54 | 1017.1 |
| 20260509104220 | 65 | 296 | 2.0 | 7.0 | 0.00 | 0.02 | 0.01 | 56 | 1017.2 |
| 20260509103713 | 64 | 295 | 2.0 | 7.0 | 0.00 | 0.02 | 0.01 | 58 | 1017.3 |
| 20260509103217 | 65 | 287 | 2.0 | 5.0 | 0.00 | 0.02 | 0.01 | 55 | 1017.3 |
| 20260509102731 | 66 | 207 | 1.0 | 5.0 | 0.00 | 0.02 | 0.01 | 55 | 1017.3 |
| 20260509101721 | 65 | 190 | 1.0 | 6.0 | 0.00 | 0.02 | 0.01 | 52 | 1017.3 |
| 20260509101226 | 64 | 256 | 1.0 | 5.0 | 0.00 | 0.02 | 0.01 | 55 | 1017.3 |
| 20260509100735 | 63 | 234 | 0.0 | 0.0 | 0.00 | 0.02 | 0.01 | 60 | 1017.3 |
| 20260509100218 | 63 | 200 | 0.0 | 7.0 | 0.00 | 0.02 | 0.01 | 57 | 1017.4 |
| 20260509095218 | 64 | 271 | 2.0 | 6.0 | 0.00 | 0.02 | 0.01 | 55 | 1017.4 |
| 20260509094732 | 64 | 200 | 1.0 | 5.0 | 0.00 | 0.02 | 0.01 | 54 | 1017.4 |
| 20260509094225 | 64 | 207 | 1.0 | 6.0 | 0.00 | 0.02 | 0.01 | 58 | 1017.4 |
| 20260509093229 | 63 | 174 | 2.0 | 9.0 | 0.00 | 0.02 | 0.01 | 58 | 1017.5 |
| 20260509092715 | 64 | 218 | 3.0 | 9.0 | 0.00 | 0.02 | 0.01 | 57 | 1017.5 |
| 20260509091723 | 64 | 169 | 2.0 | 7.0 | 0.00 | 0.02 | 0.01 | 56 | 1017.5 |
| 20260509091219 | 65 | 172 | 1.0 | 8.0 | 0.00 | 0.02 | 0.01 | 57 | 1017.5 |
| 20260509090708 | 64 | 136 | 2.0 | 8.0 | 0.00 | 0.02 | 0.01 | 56 | 1017.5 |
| 20260509090220 | 64 | 186 | 2.0 | 8.0 | 0.00 | 0.02 | 0.01 | 56 | 1017.5 |
| 20260509085716 | 63 | 155 | 0.0 | 5.0 | 0.00 | 0.02 | 0.01 | 57 | 1017.5 |
| 20260509085214 | 63 | 182 | 2.0 | 6.0 | 0.00 | 0.02 | 0.01 | 60 | 1017.5 |
| 20260509084222 | 62 | 167 | 2.0 | 6.0 | 0.00 | 0.02 | 0.01 | 58 | 1017.7 |
| 20260509083725 | 62 | 185 | 2.0 | 6.0 | 0.00 | 0.02 | 0.01 | 60 | 1017.5 |
| 20260509082721 | 61 | 167 | 4.0 | 6.0 | 0.00 | 0.02 | 0.01 | 59 | 1017.7 |
| 20260509082224 | 61 | 180 | 4.0 | 6.0 | 0.00 | 0.02 | 0.01 | 60 | 1017.8 |
| 20260509081721 | 61 | 167 | 2.0 | 6.0 | 0.00 | 0.02 | 0.01 | 61 | 1017.8 |
| 20260509081222 | 60 | 157 | 2.0 | 5.0 | 0.00 | 0.02 | 0.01 | 64 | 1017.8 |
| 20260509080721 | 60 | 158 | 2.0 | 5.0 | 0.00 | 0.02 | 0.01 | 65 | 1017.8 |
| 20260509080216 | 60 | 166 | 2.0 | 5.0 | 0.00 | 0.02 | 0.01 | 66 | 1017.9 |
| 20260509075718 | 59 | 181 | 2.0 | 5.0 | 0.00 | 0.02 | 0.01 | 65 | 1017.9 |
| 20260509075223 | 59 | 186 | 2.0 | 5.0 | 0.00 | 0.02 | 0.01 | 65 | 1017.9 |
| 20260509074723 | 59 | 170 | 1.0 | 4.0 | 0.00 | 0.02 | 0.01 | 66 | 1017.9 |
| 20260509074226 | 58 | 173 | 0.0 | 4.0 | 0.00 | 0.02 | 0.01 | 66 | 1017.9 |
| 20260509073717 | 58 | 182 | 1.0 | 4.0 | 0.00 | 0.02 | 0.01 | 70 | 1017.9 |
| 20260509073219 | 58 | 162 | 1.0 | 4.0 | 0.00 | 0.02 | 0.01 | 67 | 1017.9 |
| 20260509072715 | 58 | 169 | 0.0 | 0.0 | 0.00 | 0.02 | 0.01 | 67 | 1018.0 |
| 20260509072219 | 58 | 169 | 0.0 | 0.0 | 0.00 | 0.02 | 0.01 | 68 | 1018.0 |
| 20260509071711 | 58 | 148 | 0.0 | 0.0 | 0.00 | 0.02 | 0.01 | 70 | 1017.9 |
| 20260509071229 | 57 | 15 | 0.0 | 0.0 | 0.00 | 0.02 | 0.01 | 74 | 1017.9 |
| 20260509070728 | 56 | 15 | 0.0 | 0.0 | 0.00 | 0.02 | 0.01 | 76 | 1017.9 |
| 20260509070223 | 55 | 15 | 0.0 | 0.0 | 0.00 | 0.02 | 0.01 | 80 | 1017.9 |
| 20260509065715 | 54 | 15 | 0.0 | 0.0 | 0.00 | 0.02 | 0.01 | 80 | 1017.9 |
| 20260509065214 | 53 | 15 | 0.0 | 0.0 | 0.00 | 0.02 | 0.01 | 86 | 1017.9 |
| 20260509064726 | 52 | 15 | 0.0 | 0.0 | 0.00 | 0.02 | 0.01 | 86 | 1017.9 |
| 20260509063219 | 50 | 15 | 0.0 | 0.0 | 0.00 | 0.02 | 0.01 | 92 | 1017.8 |
| 20260509062226 | 48 | 15 | 0.0 | 0.0 | 0.00 | 0.02 | 0.01 | 93 | 1017.8 |
| 20260509061713 | 47 | 15 | 0.0 | 0.0 | 0.00 | 0.02 | 0.01 | 93 | 1017.8 |
| 20260509061216 | 47 | 15 | 0.0 | 0.0 | 0.00 | 0.02 | 0.01 | 93 | 1017.8 |
| 20260509060728 | 46 | 15 | 0.0 | 0.0 | 0.00 | 0.02 | 0.01 | 93 | 1017.7 |
| 20260509055720 | 46 | 15 | 0.0 | 0.0 | 0.00 | 0.02 | 0.01 | 92 | 1017.5 |
| 20260509055221 | 45 | 15 | 0.0 | 0.0 | 0.00 | 0.02 | 0.01 | 92 | 1017.5 |
| 20260509054722 | 45 | 15 | 0.0 | 0.0 | 0.00 | 0.02 | 0.01 | 92 | 1017.5 |
| 20260509053719 | 45 | 15 | 0.0 | 0.0 | 0.00 | 0.02 | 0.01 | 92 | 1017.7 |
| 20260509053223 | 45 | 15 | 0.0 | 0.0 | 0.00 | 0.02 | 0.01 | 92 | 1017.5 |
| 20260509052726 | 45 | 15 | 0.0 | 0.0 | 0.00 | 0.02 | 0.01 | 91 | 1017.5 |
| 20260509052212 | 45 | 15 | 0.0 | 0.0 | 0.00 | 0.02 | 0.01 | 91 | 1017.5 |
| 20260509051749 | 45 | 15 | 0.0 | 0.0 | 0.00 | 0.02 | 0.01 | 91 | 1017.5 |
| 20260509050709 | 44 | 15 | 0.0 | 0.0 | 0.00 | 0.02 | 0.01 | 91 | 1017.4 |
| 20260509050224 | 45 | 15 | 0.0 | 0.0 | 0.00 | 0.02 | 0.01 | 91 | 1017.4 |
| 20260509045712 | 45 | 15 | 0.0 | 0.0 | 0.00 | 0.02 | 0.01 | 91 | 1017.4 |
| 20260509045216 | 45 | 15 | 0.0 | 0.0 | 0.00 | 0.02 | 0.01 | 91 | 1017.4 |
| 20260509044727 | 45 | 15 | 0.0 | 0.0 | 0.00 | 0.02 | 0.01 | 91 | 1017.3 |
| 20260509043730 | 45 | 13 | 0.0 | 0.0 | 0.00 | 0.02 | 0.01 | 91 | 1017.2 |
| 20260509043218 | 45 | 13 | 0.0 | 0.0 | 0.00 | 0.02 | 0.01 | 91 | 1017.1 |
| 20260509042714 | 45 | 13 | 0.0 | 0.0 | 0.00 | 0.02 | 0.01 | 91 | 1017.1 |
| 20260509042223 | 45 | 13 | 0.0 | 0.0 | 0.00 | 0.02 | 0.01 | 91 | 1017.1 |
| 20260509041223 | 45 | 13 | 0.0 | 0.0 | 0.00 | 0.02 | 0.01 | 91 | 1017.0 |
| 20260509040718 | 45 | 5 | 0.0 | 0.0 | 0.00 | 0.02 | 0.01 | 91 | 1017.0 |
| 20260509040224 | 45 | 5 | 0.0 | 0.0 | 0.00 | 0.02 | 0.01 | 91 | 1017.1 |
| 20260509035723 | 45 | 5 | 0.0 | 0.0 | 0.00 | 0.02 | 0.01 | 91 | 1017.0 |
| 20260509035219 | 45 | 5 | 0.0 | 0.0 | 0.00 | 0.02 | 0.01 | 91 | 1017.1 |
| 20260509034713 | 45 | 5 | 0.0 | 0.0 | 0.00 | 0.02 | 0.01 | 91 | 1017.1 |
| 20260509034231 | 45 | 5 | 0.0 | 0.0 | 0.00 | 0.02 | 0.01 | 91 | 1017.1 |
| 20260509033224 | 45 | 5 | 0.0 | 0.0 | 0.00 | 0.02 | 0.01 | 91 | 1017.2 |
| 20260509032722 | 45 | 336 | 0.0 | 0.0 | 0.00 | 0.02 | 0.01 | 91 | 1017.2 |
| 20260509032211 | 45 | 331 | 0.0 | 0.0 | 0.00 | 0.02 | 0.01 | 91 | 1017.2 |
| 20260509031722 | 45 | 331 | 0.0 | 0.0 | 0.00 | 0.02 | 0.01 | 91 | 1017.2 |
| 20260509031215 | 45 | 331 | 0.0 | 0.0 | 0.00 | 0.02 | 0.01 | 91 | 1017.3 |
| 20260509030720 | 45 | 331 | 0.0 | 0.0 | 0.00 | 0.02 | 0.01 | 91 | 1017.3 |
| 20260509030221 | 45 | 331 | 0.0 | 0.0 | 0.00 | 0.02 | 0.01 | 91 | 1017.4 |
| 20260509025727 | 45 | 350 | 0.0 | 0.0 | 0.01 | 0.02 | 0.01 | 91 | 1017.4 |
| 20260509025238 | 45 | 350 | 0.0 | 0.0 | 0.01 | 0.02 | 0.01 | 91 | 1017.4 |
| 20260509024717 | 45 | 350 | 0.0 | 0.0 | 0.01 | 0.02 | 0.01 | 91 | 1017.4 |
| 20260509024219 | 45 | 350 | 0.0 | 0.0 | 0.01 | 0.02 | 0.01 | 91 | 1017.4 |
| 20260509023724 | 45 | 98 | 0.0 | 0.0 | 0.01 | 0.02 | 0.01 | 90 | 1017.4 |
| 20260509022227 | 46 | 98 | 0.0 | 0.0 | 0.01 | 0.02 | 0.01 | 90 | 1017.4 |
| 20260509021715 | 46 | 98 | 0.0 | 0.0 | 0.01 | 0.02 | 0.01 | 90 | 1017.4 |
| 20260509021232 | 46 | 98 | 0.0 | 0.0 | 0.01 | 0.02 | 0.01 | 90 | 1017.4 |
| 20260509020708 | 46 | 98 | 0.0 | 0.0 | 0.01 | 0.02 | 0.01 | 90 | 1017.4 |
| 20260509020212 | 46 | 98 | 0.0 | 0.0 | 0.01 | 0.02 | 0.01 | 90 | 1017.3 |
| 20260509015726 | 46 | 98 | 0.0 | 0.0 | 0.00 | 0.02 | 0.00 | 90 | 1017.3 |
| 20260509015214 | 46 | 98 | 0.0 | 0.0 | 0.00 | 0.02 | 0.00 | 89 | 1017.3 |
| 20260509013721 | 46 | 98 | 0.0 | 0.0 | 0.00 | 0.02 | 0.00 | 89 | 1017.3 |